{"data":{"norad_id":57879,"epoch":"2026-09-20T16:33:07.860384Z","epoch_age_seconds":118729,"freshness":"FRESH","line1":"1 57879U 23144R   26263.68967431  .00001150  00000+0  51317-4 0  9990","line2":"2 57879  43.0015 263.6464 0001560 271.5145  88.5528 15.27578410167469","mean_motion":15.2757841,"eccentricity":0.000156,"inclination_deg":43.0015,"raan_deg":263.6464,"arg_perigee_deg":271.5145,"mean_anomaly_deg":88.5528,"bstar":5.1317e-5,"rev_number":16746,"period_min":94.266846832432,"perigee_km":481.98351130208,"apogee_km":484.12420284949,"semimajor_km":6861.1908570758,"source":"CELESTRAK","updated_at":"2026-09-21T09:00:33.718972Z"}}